Location: Bagnara
(41.0500°N, 14.7833°E)
Time: 23:48:39
(UTC+00:00)

Meteor 2-3 Rocket - Pass Details

Date: 01 November 2021
Orbit: 842 x 885 km, 81.2° (Epoch: 28 November)

Event Time Altitude Azimuth Distance (km) Brightness Sun altitude
Rises 17:51:20 0° 358° (N) 3,431 6.9 -22.1°
Reaches altitude 10° 17:53:58 10° 8° (N) 2,497 6.1 -22.6°
Enters shadow 17:56:31 24° 27° (NNE) 1,726 5.1 -23.1°
